Regional Weather Roundup
Issued by NWS State College, PA

Home | Current Version | Previous Version | Graphics & Text | Print | Product List | Glossary Off
Versions: 1 2 3 4 5 6 7 8 9 10 11 12 13 14 15 16 17 18 19 20 21 22 23 24 25 26 27 28 29 30 31 32 33 34 35 36 37 38 39 40 41 42 43 44 45 46 47 48 49 50

000
ASUS41 KCTP 041310
RWRCTP

REGIONAL WEATHER ROUNDUP
NATIONAL WEATHER SERVICE STATE COLLEGE PA
900 AM EDT SAT JUL 04 2015

Note: "fair" indicates few or no clouds below 12,000 feet with no
significant weather and/or obstructions to visibility.

* = STATION THAT DOES NOT REPORT PRECIPITATION /E.G. RAIN...SNOW...ETC/
    THUNDER OR FOG.

PAZ002>004-007>009-013>016-020>023-029>032-041400-
WESTERN PENNSYLVANIA

CITY           SKY/WX    TMP DP  RH WIND       PRES   REMARKS
ERIE           SUNNY     67  58  72 N8        29.95R
MEADVILLE      SUNNY     67  59  75 NE5       29.95R
FRANKLIN*      CLOUDY    66  61  82 CALM      29.96R
NEW CASTLE     PTSUNNY   68  66  94 CALM      29.95R
BEAVER COUNTY  NOT AVBL
BUTLER*        PTSUNNY   66  64  94 NW5       29.96R
PITTSBURGH INT CLOUDY    68  64  87 NW6       29.94R
PITTSBURGH     PTSUNNY   68  62  81 NW6       29.92R HAZE
INDIANA*       CLOUDY    64  64 100 CALM      29.96R FOG
LATROBE        CLOUDY    66  66 100 CALM      29.93R FOG
WASHINGTON CO* NOT AVBL
$$

PAZ004>006-010>012-017>019-024>028-033>037-041-042-045-046-049>053-041400-
CENTRAL PENNSYLVANIA

CITY           SKY/WX    TMP DP  RH WIND       PRES   REMARKS
BRADFORD       CLOUDY    64  60  87 E3        29.97R
DUBOIS         CLOUDY    66  63  90 NE5       29.93S
CLEARFIELD     RAIN      63  61  93 NE5       29.94S FOG
JOHNSTOWN      CLOUDY    63  61  93 W3        29.94R FOG
ALTOONA        LGT RAIN  63  61  93 CALM      29.93S FOG
STATE COLLEGE  RAIN      63  61  94 CALM      29.94R FOG
WILLIAMSPORT   LGT RAIN  62  59  90 NE8       29.94R
SELINSGROVE    LGT RAIN  63  61  93 E5        29.95S FOG
FT INDIANTOWN  LGT RAIN  64  63  94 VRB1      29.95R FOG
CAPITAL CITY   LGT RAIN  66  63  90 N3        29.93S FOG
HARRISBURG     LGT RAIN  66  64  93 N3        29.93R FOG
YORK           CLOUDY    68  66  93 CALM      29.92S FOG
$$

PAZ038>040-043-044-047-048-054-055-060>062-067>071-041400-
EASTERN PENNSYLVANIA

CITY           SKY/WX    TMP DP  RH WIND       PRES   REMARKS
SCRANTON       LGT RAIN  63  62  97 E3        29.98S FOG
MOUNT POCONO   LGT RAIN  61  58  90 CALM      30.01R FOG
ALLENTOWN      LGT RAIN  68  64  87 NE6       29.96R FOG
QUAKERTOWN*    CLOUDY    68  64  88 NE3       29.96R
READING        CLOUDY    68  64  87 N5        29.94R FOG
LANCASTER      LGT RAIN  67  66  97 NE6       29.93R FOG
COATESVILLE    CLOUDY    68  66  94 CALM      29.95R
POTTSTOWN      CLOUDY    68  66  93 NE5       29.95R
BLUE BELL      CLOUDY    72  68  88 E5        29.92S
DOYLESTOWN     CLOUDY    68  64  87 N6        29.93S
WILLOW GROVE   NOT AVBL
NORTH PHILA    PTSUNNY   72  64  76 NE8       29.93S
PHILADELPHIA   PTSUNNY   74  66  76 NE8       29.91F
$$


USA.gov is the U.S. government's official web portal to all federal, state and local government web resources and services.